{"data":{"norad_id":62993,"epoch":"2026-09-21T00:46:48.872640Z","epoch_age_seconds":119127,"freshness":"FRESH","line1":"1 62993U 25031N   26264.03251010  .00112429  00000+0  86535-3 0  9990","line2":"2 62993  42.9996 264.0933 0001665 245.9856 114.0837 15.70909314 93458","mean_motion":15.70909314,"eccentricity":0.0001665,"inclination_deg":42.9996,"raan_deg":264.0933,"arg_perigee_deg":245.9856,"mean_anomaly_deg":114.0837,"bstar":0.00086535,"rev_number":9345,"period_min":91.666653648729,"perigee_km":355.17567321502,"apogee_km":357.41823972252,"semimajor_km":6734.4339564688,"source":"CELESTRAK","updated_at":"2026-09-22T09:00:49.718989Z"}}